Content
SEND FEEDBACK

Daily
Averages
Monthly
Summary
United States of America

PROCIOUS, WEST VIRGINIA


Home > North America > United States > West Virginia
Elevation: 749 feet     Latitude: 38 29N     Longitude: 081 16W

WEATHER
 
SELECT A DAY
Number of Records: 197,450;   Date Range: 1/1/95 - 8/12/14
 
SHARE

PRINT THIS DATA

[ ← Previous Day ]
WEATHER ALMANAC - FEBRUARY 13, 2013
[ Next Day → ]
[ °C ]   °F
Weather ElementAverageHighLow
Temperature35.4 °F42.1 °F (10:54 am)32 °F (6:54 am)
Dewpoint29.5 °F35.1 °F (1:54 pm)24.1 °F (10:54 am)
Humidity79.9 %89 % (1:54 pm)49 % (10:54 am)
Barometer29.79 in29.94 in (11:54 pm)29.65 in (2:22 pm)
Wind Speed4 mph11.5 mph (11:54 pm)
Wind Gust18.4 mph (11:54 pm)
Weather ElementAverage
Visibility8.1 mi
Wind DirectionSE (137.3 °)

Weather ElementTotal
Precipitation0.27 in
Heating Degree Days28 (Base 65)
Averaged from 26 records on February 13, 2013
WEATHER CONDITIONS BREAKOUT
WIND DIRECTION BREAKOUT
WEATHER BY HOUR - FEBRUARY 13, 2013
[ °C ]   °F
Local TimeTemperatureDewpointHumidityBarometerVisibilityWind DirectionWind SpeedGust SpeedPrecipitationEventsConditions
1:54 AM33.1 °F26.1 °F75 %29.88 in10.0 miCalmClear
2:54 AM33.1 °F27.0 °F78 %29.86 in10.0 miCalmPartly Cloudy
3:54 AM33.1 °F27.0 °F78 %29.84 in10.0 miCalmOvercast
4:54 AM34.0 °F27.0 °F75 %29.83 in10.0 miCalmOvercast
5:54 AM34.0 °F26.1 °F73 %29.78 in10.0 miESE (110°)5.8 mphOvercast
6:54 AM32.0 °F26.1 °F79 %29.78 in10.0 miSE (130°)3.5 mphScattered Clouds
7:54 AM32.0 °F26.1 °F79 %29.74 in10.0 miNNE (30°)3.5 mphScattered Clouds
8:54 AM35.6 °F26.6 °F70 %29.69 in10.0 miEast (80°)5.8 mphOvercast
9:54 AM37.9 °F25.0 °F60 %29.74 in10.0 miNNW (330°)3.5 mph0.00 inRainLight Rain
10:54 AM42.1 °F24.1 °F49 %29.71 in10.0 miCalm0.00 in
11:54 AM39.9 °F28.9 °F65 %29.71 in5.0 miCalm0.02 inRainRain
12:01 PM39.2 °F30.2 °F70 %29.69 in9.0 miNE (40°)3.5 mph0.01 inRainLight Rain
12:54 PM37.9 °F33.1 °F83 %29.69 in9.0 miENE (60°)4.6 mph0.07 inRainLight Rain
1:54 PM37.9 °F35.1 °F89 %29.67 in6.0 miCalm0.04 inRainLight Rain
2:22 PM37.4 °F33.8 °F87 %29.65 in10.0 miCalm0.01 inRainLight Rain
2:54 PM37.9 °F34.0 °F86 %29.68 in7.0 miNW (320°)10.4 mph17.3 mph0.03 inRain-SnowLight Rain
3:54 PM36.0 °F33.1 °F89 %29.73 in5.0 miVariable6.9 mph16.1 mph0.05 inRain-SnowLight Rain
4:54 PM35.1 °F32.0 °F89 %29.77 in5.0 miNW (310°)4.6 mph0.02 inRain-SnowLight Rain
5:54 PM34.0 °F30.9 °F89 %29.81 in4.0 miWest (280°)6.9 mph0.02 inSnowLight Snow
6:54 PM34.0 °F30.9 °F89 %29.84 in7.0 miWest (270°)5.8 mph0.00 inSnowLight Snow
7:54 PM34.0 °F30.9 °F89 %29.87 in6.0 miWest (260°)5.8 mph0.00 inSnowLight Snow
8:54 PM34.0 °F30.9 °F89 %29.89 in6.0 miWest (270°)6.9 mph0.00 inSnowLight Snow
9:54 PM34.0 °F30.9 °F89 %29.91 in7.0 miWSW (250°)4.6 mph0.00 inOvercast
10:44 PM33.8 °F30.2 °F87 %29.91 in7.0 miWest (280°)5.8 mphOvercast
10:54 PM34.0 °F30.9 °F89 %29.92 in8.0 miWest (270°)4.6 mphOvercast
11:54 PM34.0 °F28.9 °F82 %29.94 in10.0 miWest (280°)11.5 mph18.4 mphOvercast
Hourly data recorded from KCRW, located miles away from Procious, West Virginia







STORIES FROM OUR PARTNERS